TimeCST,TemperatureF,Dew PointF,Humidity,Sea Level PressureIn,VisibilityMPH,Wind Direction,Wind SpeedMPH,Gust SpeedMPH,PrecipitationIn,Events,Conditions,WindDirDegrees,DateUTC
12:15 AM,18.7,11.5,74,30.08,10.0,West,11.5,-,N/A,,Clear,260,2013-01-02 06:15:00
12:35 AM,17.6,10.8,75,30.07,10.0,West,11.5,-,N/A,,Clear,260,2013-01-02 06:35:00
12:55 AM,16.9,10.4,76,30.06,10.0,West,11.5,-,N/A,,Clear,260,2013-01-02 06:55:00
1:15 AM,17.1,10.4,75,30.05,10.0,West,15.0,-,N/A,,Clear,260,2013-01-02 07:15:00
1:35 AM,16.7,10.2,76,30.05,10.0,West,12.7,-,N/A,,Clear,260,2013-01-02 07:35:00
1:55 AM,15.4,9.3,77,30.05,10.0,West,13.8,-,N/A,,Clear,270,2013-01-02 07:55:00
2:15 AM,14.5,8.8,78,30.05,10.0,West,10.4,-,N/A,,Scattered Clouds,260,2013-01-02 08:15:00
2:35 AM,14.7,8.6,77,30.04,10.0,West,10.4,-,N/A,,Clear,270,2013-01-02 08:35:00
2:55 AM,15.1,9.1,77,30.05,10.0,West,10.4,-,N/A,,Clear,270,2013-01-02 08:55:00
3:15 AM,13.3,7.5,78,30.05,10.0,West,10.4,-,N/A,,Clear,260,2013-01-02 09:15:00
3:35 AM,13.1,7.7,79,30.05,10.0,West,8.1,-,N/A,,Clear,260,2013-01-02 09:35:00
3:55 AM,12.7,7.2,78,30.05,10.0,West,8.1,-,N/A,,Clear,260,2013-01-02 09:55:00
4:15 AM,12.7,7.3,79,30.04,10.0,West,9.2,-,N/A,,Clear,270,2013-01-02 10:15:00
4:35 AM,12.2,6.8,79,30.04,10.0,West,9.2,-,N/A,,Clear,270,2013-01-02 10:35:00
4:55 AM,11.5,6.3,80,30.05,10.0,West,9.2,-,N/A,,Clear,270,2013-01-02 10:55:00
5:15 AM,11.5,6.6,81,30.05,10.0,WNW,9.2,-,N/A,,Clear,290,2013-01-02 11:15:00
5:35 AM,13.5,8.4,80,30.04,10.0,WNW,9.2,-,N/A,,Clear,300,2013-01-02 11:35:00
5:55 AM,14.0,9.5,82,30.04,10.0,NW,8.1,-,N/A,,Scattered Clouds,310,2013-01-02 11:55:00
6:15 AM,16.3,12.2,84,30.04,10.0,WNW,10.4,-,N/A,,Mostly Cloudy,300,2013-01-02 12:15:00
6:35 AM,19.2,14.5,82,30.05,10.0,NW,9.2,-,N/A,,Overcast,310,2013-01-02 12:35:00
6:55 AM,22.8,18.1,82,30.05,10.0,NW,13.8,-,N/A,,Overcast,320,2013-01-02 12:55:00
7:15 AM,24.4,19.9,83,30.06,10.0,NW,11.5,-,N/A,,Overcast,320,2013-01-02 13:15:00
7:35 AM,25.3,21.0,84,30.06,10.0,NW,15.0,-,N/A,,Overcast,320,2013-01-02 13:35:00
7:55 AM,25.5,21.9,86,30.07,7.0,NW,10.4,-,N/A,Snow,Light Snow,310,2013-01-02 13:55:00
8:15 AM,26.1,23.0,88,30.07,10.0,NW,10.4,-,N/A,,Overcast,310,2013-01-02 14:15:00
8:35 AM,26.4,23.2,88,30.08,10.0,WNW,10.4,-,N/A,,Overcast,300,2013-01-02 14:35:00
8:55 AM,26.6,23.4,88,30.08,10.0,NW,8.1,-,N/A,,Overcast,310,2013-01-02 14:55:00
9:15 AM,27.5,24.4,88,30.09,10.0,NW,12.7,-,N/A,,Overcast,310,2013-01-02 15:15:00
9:35 AM,28.4,25.3,88,30.10,10.0,NW,11.5,-,N/A,,Overcast,310,2013-01-02 15:35:00
9:55 AM,29.3,26.1,88,30.11,10.0,NW,10.4,-,N/A,,Overcast,310,2013-01-02 15:55:00
10:15 AM,30.0,26.6,87,30.12,10.0,NW,9.2,-,N/A,,Mostly Cloudy,310,2013-01-02 16:15:00
10:35 AM,30.7,27.3,87,30.13,10.0,WNW,9.2,-,N/A,,Mostly Cloudy,300,2013-01-02 16:35:00
10:55 AM,31.1,27.5,87,30.12,10.0,NW,11.5,-,N/A,,Overcast,310,2013-01-02 16:55:00
11:15 AM,32.0,27.5,83,30.12,10.0,WNW,9.2,-,N/A,,Mostly Cloudy,290,2013-01-02 17:15:00
11:35 AM,33.1,27.9,81,30.11,10.0,WNW,9.2,-,N/A,,Scattered Clouds,290,2013-01-02 17:35:00
11:55 AM,33.1,28.0,82,30.10,10.0,West,9.2,-,N/A,,Scattered Clouds,280,2013-01-02 17:55:00
12:15 PM,33.3,28.0,81,30.10,10.0,West,9.2,-,N/A,,Clear,280,2013-01-02 18:15:00
12:35 PM,34.0,28.2,79,30.09,10.0,West,10.4,-,N/A,,Clear,280,2013-01-02 18:35:00
12:55 PM,34.2,28.2,79,30.09,10.0,West,9.2,-,N/A,,Clear,280,2013-01-02 18:55:00
1:15 PM,34.2,28.4,79,30.09,10.0,West,9.2,-,N/A,,Scattered Clouds,280,2013-01-02 19:15:00
1:35 PM,34.9,28.0,76,30.09,10.0,NW,10.4,-,N/A,,Overcast,310,2013-01-02 19:35:00
1:55 PM,34.9,27.3,74,30.08,10.0,WNW,11.5,-,N/A,,Overcast,300,2013-01-02 19:55:00
2:15 PM,35.1,28.0,76,30.08,10.0,NW,10.4,-,N/A,,Overcast,310,2013-01-02 20:15:00
2:35 PM,35.1,27.3,73,30.08,10.0,NW,9.2,-,N/A,,Overcast,320,2013-01-02 20:35:00
2:55 PM,34.9,27.9,76,30.09,10.0,NW,8.1,-,N/A,,Overcast,310,2013-01-02 20:55:00
3:15 PM,34.9,26.8,72,30.09,10.0,North,10.4,18.4,N/A,,Overcast,350,2013-01-02 21:15:00
3:35 PM,34.2,27.1,75,30.11,10.0,NNW,8.1,-,N/A,,Overcast,340,2013-01-02 21:35:00
3:55 PM,34.2,27.3,76,30.11,10.0,NNW,9.2,-,N/A,,Overcast,330,2013-01-02 21:55:00
4:15 PM,33.8,26.1,73,30.12,10.0,NNW,9.2,-,N/A,,Overcast,340,2013-01-02 22:15:00
4:35 PM,34.0,24.8,69,30.12,10.0,NNW,10.4,-,N/A,,Overcast,330,2013-01-02 22:35:00
4:55 PM,33.4,25.5,73,30.13,10.0,NNW,9.2,-,N/A,,Overcast,340,2013-01-02 22:55:00
5:15 PM,32.7,24.3,71,30.14,10.0,NNW,5.8,-,N/A,,Overcast,330,2013-01-02 23:15:00
5:35 PM,32.0,24.6,74,30.15,10.0,NW,3.5,-,N/A,,Overcast,320,2013-01-02 23:35:00
5:55 PM,32.0,24.8,75,30.15,10.0,Calm,Calm,-,N/A,,Overcast,0,2013-01-02 23:55:00
6:15 PM,32.0,24.4,74,30.15,10.0,West,4.6,-,N/A,,Overcast,270,2013-01-03 00:15:00
6:35 PM,31.1,23.9,75,30.16,10.0,WNW,4.6,-,N/A,,Overcast,300,2013-01-03 00:35:00
6:55 PM,30.0,23.2,76,30.16,10.0,Calm,Calm,-,N/A,,Overcast,0,2013-01-03 00:55:00
7:15 PM,28.9,22.6,77,30.17,10.0,West,4.6,-,N/A,,Overcast,260,2013-01-03 01:15:00
7:35 PM,27.5,22.1,80,30.17,10.0,West,4.6,-,N/A,,Overcast,270,2013-01-03 01:35:00
7:55 PM,28.6,22.8,79,30.17,10.0,West,5.8,-,N/A,,Overcast,280,2013-01-03 01:55:00
8:15 PM,30.0,23.0,75,30.18,10.0,West,6.9,-,N/A,,Overcast,280,2013-01-03 02:15:00
8:35 PM,30.2,22.6,73,30.19,10.0,WNW,8.1,-,N/A,,Mostly Cloudy,290,2013-01-03 02:35:00
8:55 PM,28.8,21.9,76,30.19,10.0,WNW,9.2,-,N/A,,Scattered Clouds,300,2013-01-03 02:55:00
9:15 PM,26.1,20.1,78,30.20,10.0,WNW,8.1,-,N/A,,Scattered Clouds,300,2013-01-03 03:15:00
9:35 PM,25.3,20.5,82,30.21,10.0,NW,9.2,-,N/A,,Scattered Clouds,320,2013-01-03 03:35:00
9:55 PM,24.8,19.6,81,30.22,10.0,NW,11.5,-,N/A,,Clear,320,2013-01-03 03:55:00
10:15 PM,25.5,19.9,79,30.22,10.0,NW,10.4,-,N/A,,Clear,320,2013-01-03 04:15:00
10:35 PM,24.4,19.2,81,30.23,10.0,NW,8.1,-,N/A,,Scattered Clouds,320,2013-01-03 04:35:00
10:55 PM,23.0,17.6,80,30.24,10.0,NW,9.2,-,N/A,,Scattered Clouds,320,2013-01-03 04:55:00
11:15 PM,22.8,17.2,79,30.25,10.0,NNW,11.5,-,N/A,,Clear,330,2013-01-03 05:15:00
11:35 PM,23.0,17.2,79,30.26,10.0,NNW,12.7,-,N/A,,Scattered Clouds,340,2013-01-03 05:35:00
11:55 PM,23.0,17.2,79,30.27,10.0,NW,9.2,-,N/A,,Mostly Cloudy,320,2013-01-03 05:55:00